Location: Altleiningen
(49.5078°N, 8.0741°E)
Time: 15:16:48
(UTC+00:00)

Cosmos 2227 Rocket - Pass Details

Date: 14 June 2025
Orbit: 836 x 845 km, 71.0° (Epoch: 20 July)

Event Time Altitude Azimuth Distance (km) Brightness Sun altitude
Rises 21:36:02 0° 220° (SW) 3,378 5.1 -13.0°
Reaches altitude 10° 21:38:30 10° 224° (SW) 2,449 4.4 -13.2°
Maximum altitude 21:44:02 58° 304° (WNW) 978 2.8 -13.6°
Drops below altitude 10° 21:49:38 10° 23° (NNE) 2,469 5.3 -14.0°
Sets 21:52:08 0° 28° (NNE) 3,409 6.0 -14.1°
